| time (UTC) | temp F | wind direction | speed MPH | gust MPH | rain 1hr in | rain 24hr in | rain mn in | humidity % | barometer mb |
| 20260505022628 | 66 | 184 | 0.0 | 0.0 | 0.00 | 0.00 | 0.00 | 41 | 1004.2 |
| 20260505021628 | 67 | 184 | 0.0 | 6.0 | 0.00 | 0.00 | 0.00 | 38 | 1004.1 |
| 20260505020628 | 67 | 182 | 1.0 | 4.0 | 0.00 | 0.00 | 0.00 | 35 | 1004.0 |
| 20260505015622 | 68 | 182 | 2.0 | 4.0 | 0.00 | 0.00 | 0.00 | 34 | 1003.9 |
| 20260505014619 | 68 | 182 | 1.0 | 5.0 | 0.00 | 0.00 | 0.00 | 33 | 1003.8 |
| 20260505013619 | 68 | 182 | 2.0 | 4.0 | 0.00 | 0.00 | 0.00 | 33 | 1003.8 |
| 20260505012619 | 69 | 183 | 2.0 | 4.0 | 0.00 | 0.00 | 0.00 | 34 | 1003.8 |
| 20260505011617 | 70 | 182 | 2.0 | 4.0 | 0.00 | 0.00 | 0.00 | 31 | 1003.8 |
| 20260505010616 | 71 | 182 | 4.0 | 7.0 | 0.00 | 0.00 | 0.00 | 28 | 1003.8 |
| 20260505005630 | 71 | 113 | 2.0 | 6.0 | 0.00 | 0.00 | 0.00 | 25 | 1003.9 |
| 20260505004629 | 71 | 70 | 1.0 | 8.0 | 0.00 | 0.00 | 0.00 | 28 | 1004.0 |
| 20260505003632 | 71 | 68 | 8.0 | 15.0 | 0.00 | 0.00 | 0.00 | 27 | 1003.9 |
| 20260505002634 | 72 | 60 | 3.0 | 9.0 | 0.00 | 0.00 | 0.00 | 25 | 1004.1 |
| 20260505001632 | 72 | 65 | 6.0 | 11.0 | 0.00 | 0.00 | 0.00 | 26 | 1004.1 |
| 20260505000633 | 70 | 19 | 12.0 | 21.0 | 0.00 | 0.00 | 0.00 | 28 | 1004.1 |
| 20260504235621 | 70 | 9 | 21.0 | 27.0 | 0.00 | 0.00 | 0.00 | 28 | 1003.9 |
| 20260504234619 | 70 | 32 | 21.0 | 28.0 | 0.00 | 0.00 | 0.00 | 27 | 1004.0 |
| 20260504233618 | 72 | 21 | 20.0 | 26.0 | 0.00 | 0.00 | 0.00 | 25 | 1004.0 |
| 20260504232641 | 71 | 24 | 15.0 | 22.0 | 0.00 | 0.00 | 0.00 | 26 | 1004.1 |
| 20260504231622 | 72 | 28 | 14.0 | 23.0 | 0.00 | 0.00 | 0.00 | 25 | 1004.2 |
| 20260504230621 | 74 | 51 | 14.0 | 21.0 | 0.00 | 0.00 | 0.00 | 24 | 1004.1 |
| 20260504225634 | 75 | 176 | 5.0 | 8.0 | 0.00 | 0.00 | 0.00 | 21 | 1004.2 |
| 20260504224634 | 75 | 275 | 2.0 | 8.0 | 0.00 | 0.00 | 0.00 | 20 | 1004.3 |
| 20260504223634 | 74 | 236 | 10.0 | 14.0 | 0.00 | 0.00 | 0.00 | 21 | 1004.2 |
| 20260504222654 | 74 | 205 | 7.0 | 11.0 | 0.00 | 0.00 | 0.00 | 23 | 1004.2 |
| 20260504221632 | 74 | 221 | 3.0 | 10.0 | 0.00 | 0.00 | 0.00 | 22 | 1004.3 |
| 20260504220617 | 74 | 275 | 4.0 | 12.0 | 0.00 | 0.00 | 0.00 | 23 | 1004.4 |
| 20260504215632 | 74 | 227 | 6.0 | 13.0 | 0.00 | 0.00 | 0.00 | 23 | 1004.5 |
| 20260504214631 | 74 | 215 | 6.0 | 10.0 | 0.00 | 0.00 | 0.00 | 23 | 1004.7 |
| 20260504213630 | 74 | 189 | 8.0 | 14.0 | 0.00 | 0.00 | 0.00 | 25 | 1004.8 |
| 20260504212619 | 73 | 163 | 8.0 | 14.0 | 0.00 | 0.00 | 0.00 | 27 | 1005.0 |